DMSP 5D-2 F11 DEB, 28334

Orbit data source: Space-Track

DMSP 5D-2 F11 DEB, 28334 is space debris in SSO originally from a launch on Thu, 28 Nov 1991 UTC launched from the Air Force Western Test Range (AFWTR). Debris objects in space refer to the collection of defunct objects orbiting the Earth. Examples of debris include non-operational satellites, rocket bodies, and fragments generated from explosions, collisions, or faulty payload assembly.

Loading next visibility...
Identifier
28334, 1991-082AX
Orbit
SSO
Country
Flag of USUS
Related business
Manufacturer
Unknown
Mission
Spacecraft
Bus & Motor
Unknown
Mass
Unknown
Launch date (UTC)
1991-11-28 (34 years ago)
Launch vehicle
Unknown
Launch site
Air Force Western Test Range (AFWTR)
Object type
Payload
Rocket body
Debris
Shape & HBR
Unknown shape, 0.1 m
Radar Cross Section
Small (<0.1 m²)

Expand to show TLE details & history
Last TLE update: 1 day ago

TLE from 1 day ago
0 DMSP 5D-2 F11 DEB
1 28334U 91082AX  25348.13661134  .00009729  00000-0  24846-2 0  9990
2 28334  98.8795  57.0717 0050974  46.6549 313.8874 14.49924737117579
Epoch: 2025-12-14T03:16Z
TLE epoch observation values (Epoch: 2025-12-14T03:16:43.219Z)
Latitude
-0.00008°
Longitude
-75.16222°
Altitude
703.832 km
Speed
7.517 km/s
True Right ascension
03h 48m 17s
True Declination
0° 00' 00"
Sunlit
Object was in full shadow at epoch
Visualization orbit readout
Latitude
Unknown
Longitude
Unknown
Altitude
Unknown
Speed
Unknown
Apparent Right ascension
Unknown
Apparent Declination
Unknown
Sunlit
N/A
Visualization observer readout
Local Sidereal Time
13:18:51
Azimuth
Unknown
Elevation
Unknown
Doppler factor
Unknown
Orbital elements
Apogee altitude
759.219 km
Perigee altitude
686.824 km
Semi-major axis
7,101.158 km
Eccentricity
0.0051
Inclination
98.8795°
RAAN
57.0717°
Arg. of periapsis
46.6549°
True anomaly
313.46456°
Mean anomaly
313.8874°
Eccentric anomaly
313.67617°
Mean motion
3.62702 °/min
Orbital period
99.26 mins
BSTAR
0.0024846
Loading maneuver chart data...
Computing Atmospheric mass density...

Documentation

Showing up to 5 results
|